+ View the NASA Portal
+ Center for Near-Earth Object Studies
IMPORTANT:
The SSD Announcement email list is now available. Major changes are coming in the near future, including possible hostname and/or URL changes. To be notified of such changes, subscribe to this email list.
Please visit
this page
for more details.
Don't show this message again
JPL Small-Body Database Browser
Search:
[
help
]
382309 (2013 PA34)
Classification:
Outer Main-belt Asteroid
SPK-ID:
2382309
[
Ephemeris
|
Orbit Diagram
|
Orbital Elements
|
Mission Design
|
Physical Parameters
|
Discovery Circumstances
|
Close-Approach Data
]
[ show orbit diagram ]
Orbital Elements at Epoch 2458600.5 (2019-Apr-27.0) TDB
Reference:
JPL 21
(heliocentric ecliptic J2000)
Element
Value
Uncertainty (1-sigma)
Units
e
.2012917598868634
5.2484e-08
a
3.269159259591714
4.7046e-08
au
q
2.611104438878062
1.7939e-07
au
i
16.00471721677407
6.0213e-06
deg
node
193.789838494722
1.8836e-05
deg
peri
154.4574954093642
2.3351e-05
deg
M
335.2995957312135
1.2015e-05
deg
t
p
2458748.633779836000
(2019-Sep-22.13377984)
7.1386e-05
TDB
period
2158.999511127428
5.91
4.6605e-05
1.276e-07
d
yr
n
.1667439006560998
3.5994e-09
deg/d
Q
3.927214080305366
5.6516e-08
au
Orbit Determination Parameters
# obs. used (total)
289
data-arc span
6695 days (18.33 yr)
first obs. used
2001-06-30
last obs. used
2019-10-29
planetary ephem.
DE431
SB-pert. ephem.
SB431-N16
condition code
0
norm. resid. RMS
.52799
source
ORB
producer
Otto Matic
solution date
2019-Nov-08 12:37:55
Additional Information
Earth MOID
= 1.61475 au
Jupiter MOID
= 1.59777 au
T_jup
= 3.084
[ show covariance matrix ]
[
Ephemeris
|
Orbit Diagram
|
Orbital Elements
|
Mission Design
|
Physical Parameters
|
Discovery Circumstances
|
Close-Approach Data
]
Physical Parameter Table
Parameter
Symbol
Value
Units
Sigma
Reference
Notes
absolute magnitude
H
15.3
n/a
MPO455744
382309 (2013 PA34)
Discovered 2007-Sep-27 by Mt. Lemmon Survey at Mount Lemmon
Reference:
Last Updated:
2013-12-19
[ show close-approach data ]
[
Ephemeris
|
Orbit Diagram
|
Orbital Elements
|
Mission Design
|
Physical Parameters
|
Discovery Circumstances
|
Close-Approach Data
]
2019-Dec-13 10:51 UT
(server date/time)
Site Manager:
Ryan S. Park
Webmaster
:
Alan B. Chamberlin